Flag for Brunei Weather past 2 weeks in Bandar Seri Begawan, Brunei

Now
79 °F

Partly sunny.


Feels Like: 83 °F
Forecast: 83 / 92 °F
Wind: 3 mph from Southwest

Location: Brunei Airport

Current Time: Jul 6, 2015 at 7:27:23 AM

Latest Report: Jul 6, 2015 at 7:00 AM


Visibility: 5 mi

Pressure: 29.80 "Hg

Humidity: 94%

Dew point: 77 °F

Location of Bandar Seri BegawanLocation

Historic Weather in Bandar Seri Begawan — Graph

°F

Bandar Seri Begawan temperature yesterday

Maximum temperature yesterday: 93 °F (at 2:00 PM)
Minimum temperature yesterday: 75 °F (at 3:00 AM)
Average temperature yesterday: 84 °F

Past Weeks' High & Low Weather Summary

 TemperatureHumidityPressure
High95 °F (Jun 24, 1:30 PM)100% (Jun 21, 6:30 AM)29.98 "Hg (Jun 21, 6:30 AM)
Low75 °F (Jul 5, 3:00 AM)47% (Jun 24, 2:00 PM)29.71 "Hg (Jul 3, 5:00 PM)
Average85 °F77%29.84 "Hg
* Reported Jun 21 6:00 AM — Jul 6 6:30 AM, Bandar Seri Begawan, Weather by CustomWeather, © 2015

Note: Actual official high and low records may vary slightly from our data, if they occured in-between our weather recording intervals... More about our weather records

Advertising

Bandar Seri Begawan weather history for previous 24 hours

 ConditionsComfort  
Time TempWeatherWind HumidityBarometerVisibility
6:30 AM
Mon, Jul 6
79 °FPartly sunny.3 mph89%29.77 "Hg5 mi
6:00 AM79 °FPassing clouds.2 mph89%29.77 "Hg6 mi
5:30 AM79 °FPassing clouds.3 mph89%29.77 "Hg6 mi
4:30 AM79 °FPassing clouds.1 mph89%29.77 "Hg6 mi
4:00 AM79 °FPassing clouds.2 mph89%29.77 "Hg6 mi
3:30 AM79 °FPartly cloudy.2 mph89%29.77 "Hg6 mi
3:00 AM81 °FPartly cloudy.1 mph84%29.77 "Hg6 mi
2:30 AM81 °FPartly cloudy.3 mph84%29.77 "Hg6 mi
2:00 AM81 °FPartly cloudy.3 mph84%29.77 "Hg6 mi
1:30 AM81 °FPartly cloudy.2 mph84%29.80 "Hg6 mi
1:00 AM82 °FPassing clouds.3 mph79%29.80 "Hg6 mi
12:30 AM82 °FPassing clouds.3 mph79%29.80 "Hg6 mi
12:00 AM82 °FPassing clouds.2 mph79%29.80 "HgN/A
11:30 PM
Sun, Jul 5
82 °FPassing clouds.2 mph74%29.80 "HgN/A
11:00 PM82 °FPassing clouds.3 mph74%29.80 "HgN/A
10:30 PM82 °FPassing clouds.1 mph74%29.80 "HgN/A
10:00 PM84 °FPassing clouds.2 mph70%29.80 "HgN/A
9:30 PM84 °FPassing clouds.2 mph70%29.80 "HgN/A
9:00 PM84 °FPassing clouds.2 mph66%29.77 "HgN/A
8:30 PM86 °FPassing clouds.3 mph62%29.77 "HgN/A
8:00 PM86 °FPassing clouds.3 mph62%29.77 "HgN/A
7:30 PM86 °FPassing clouds.3 mph66%29.77 "HgN/A
7:00 PM86 °FPassing clouds.2 mph66%29.74 "HgN/A
6:30 PM88 °FPartly sunny.3 mph62%29.74 "HgN/A
6:00 PM88 °FPartly sunny.6 mph59%29.74 "HgN/A
5:30 PM90 °FPartly sunny.7 mph55%29.71 "HgN/A
5:00 PM91 °FPartly sunny.8 mph56%29.71 "HgN/A
4:30 PM90 °FPartly sunny.8 mph55%29.71 "HgN/A
4:00 PM91 °FPartly sunny.9 mph52%29.71 "HgN/A
3:30 PM91 °FPartly sunny.10 mph52%29.71 "HgN/A
3:00 PM91 °FPartly sunny.12 mph49%29.74 "HgN/A
2:30 PM91 °FPartly sunny.14 mph49%29.74 "HgN/A
2:00 PM93 °FPartly sunny.9 mph47%29.74 "HgN/A
1:30 PM91 °FPartly sunny.9 mph52%29.77 "HgN/A
1:00 PM91 °FPartly sunny.9 mph49%29.77 "HgN/A
12:30 PM91 °FPartly sunny.9 mph49%29.77 "HgN/A
11:30 AM90 °FPartly sunny.12 mph52%29.77 "HgN/A
11:00 AM90 °FPartly sunny.13 mph55%29.77 "HgN/A
10:30 AM90 °FPartly sunny.12 mph55%29.77 "HgN/A
10:00 AM86 °FPartly sunny.12 mph66%29.77 "HgN/A
9:30 AM84 °FPartly sunny.9 mph70%29.80 "HgN/A
9:00 AM82 °FPartly sunny.7 mph79%29.80 "Hg5 mi
8:30 AM79 °FPartly sunny.7 mph89%29.80 "Hg5 mi
8:00 AM77 °FPartly sunny.5 mph94%29.80 "Hg4 mi
7:30 AM77 °FPartly sunny.3 mph94%29.80 "Hg4 mi
7:00 AM75 °FPartly sunny.3 mph100%29.80 "Hg4 mi
Weather by CustomWeather, © 2015

See weather overviewHow to use our weather pages